Weather History for KBWI - November, 2012

Change the Weather History Date:

Monday, November 26, 2012

  Actual Average Record
Temperature  
Mean Temperature 40 °F 43 °F  
Max Temperature 54 °F 52 °F 72 °F (1979)
Min Temperature 25 °F 34 °F 15 °F (1950)
Degree Days  
Heating Degree Days 25 22  
Month to date heating degree days 547 465  
Since 1 July heating degree days 803 812  
Cooling Degree Days 0 0  
Month to date cooling degree days 0 0  
Year to date cooling degree days 1569 1163  
Moisture  
Dew Point 26 °F    
Average Humidity 60    
Maximum Humidity 85    
Minimum Humidity 35    
Precipitation  
Precipitation 0.00 in 0.11 in 1.61 in (2013)
Month to date precipitation 0.50 2.84  
Year to date precipitation 34.10 38.05  
Snow  
Snow 0.00 in 0.10 in 4.50 in (1898)
Month to date snowfall 0.0 0.3  
Since 1 July snowfall 0.0 0.3  
Snow Depth 0.00 in    
Sea Level Pressure  
Sea Level Pressure 30.14 in    
Wind  
Wind Speed 3 mph (WNW)    
Max Wind Speed 14 mph    
Max Gust Speed 21 mph    
Visibility 10 miles    
Events      
T = Trace of Precipitation, MM = Missing Value Source: NWS Daily Summary

Daily Weather History Graph

Daily Weather History Graph

Search for Another Location

Airport or City:

Trip Planner

Search our weather history database for the weather conditions in past years. The results will help you decide how hot, cold, wet, or windy it might be!

Date:

Astronomy

Nov. 26, 2012 Rise Set
Actual Time 7:02 AM EST 4:45 PM EST
Civil Twilight 6:33 AM EST 5:15 PM EST
Nautical Twilight 6:00 AM EST 5:47 PM EST
Astronomical Twilight 5:28 AM EST 6:20 PM EST
Moon 3:36 PM EST (11/26) 5:11 AM EST (11/26)
Length of Visible Light 10h 41m
Length of Day
9h 43m
Waxing Gibbous, 97% of the Moon is Illuminated
Nov 26
Waxing Gibbous
Nov 28
Full
Dec 6
Last Quarter
Dec 13
New
Dec 20
First Quarter

Hourly Weather History & Observations

Time (EST) Temp. Windchill Dew Point Humidity Pressure Visibility Wind Dir Wind Speed Gust Speed Precip Events Conditions
12:54 AM 26.1 °F - 21.0 °F 81% 30.01 in 10.0 mi Calm Calm - N/A   Clear
1:54 AM 26.1 °F 21.9 °F 21.0 °F 81% 30.02 in 10.0 mi NW 3.5 mph - N/A   Clear
2:54 AM 27.0 °F - 21.0 °F 78% 30.05 in 10.0 mi Calm Calm - N/A   Scattered Clouds
3:54 AM 30.0 °F - 21.9 °F 72% 30.06 in 10.0 mi Calm Calm - N/A   Mostly Cloudy
4:54 AM 30.9 °F - 24.1 °F 76% 30.06 in 10.0 mi Calm Calm - N/A   Overcast
5:54 AM 30.9 °F 27.5 °F 26.1 °F 82% 30.08 in 10.0 mi West 3.5 mph - N/A   Mostly Cloudy
6:54 AM 30.9 °F - 24.1 °F 76% 30.11 in 10.0 mi Calm Calm - N/A   Mostly Cloudy
7:54 AM 32.0 °F - 24.1 °F 73% 30.14 in 10.0 mi Calm Calm - N/A   Mostly Cloudy
8:54 AM 36.0 °F - 27.0 °F 70% 30.17 in 10.0 mi Calm Calm - N/A   Scattered Clouds
9:54 AM 44.1 °F - 27.0 °F 51% 30.18 in 10.0 mi Calm Calm - N/A   Partly Cloudy
10:54 AM 50.0 °F - 27.0 °F 41% 30.18 in 10.0 mi NW 6.9 mph - N/A   Partly Cloudy
11:54 AM 52.0 °F - 27.0 °F 38% 30.17 in 10.0 mi West 10.4 mph 16.1 mph N/A   Partly Cloudy
12:54 PM 52.0 °F - 27.0 °F 38% 30.15 in 10.0 mi Variable 6.9 mph - N/A   Partly Cloudy
1:54 PM 54.0 °F - 27.0 °F 35% 30.15 in 10.0 mi WNW 8.1 mph - N/A   Partly Cloudy
2:54 PM 53.1 °F - 26.1 °F 35% 30.16 in 10.0 mi West 10.4 mph - N/A   Partly Cloudy
3:54 PM 53.1 °F - 26.1 °F 35% 30.16 in 10.0 mi North 3.5 mph - N/A   Clear
4:54 PM 46.0 °F 42.5 °F 28.0 °F 50% 30.17 in 10.0 mi SE 6.9 mph - N/A   Clear
5:54 PM 44.1 °F - 28.9 °F 55% 30.20 in 10.0 mi Calm Calm - N/A   Clear
6:54 PM 42.1 °F 40.2 °F 28.9 °F 60% 30.22 in 10.0 mi SSE 3.5 mph - N/A   Clear
7:54 PM 39.0 °F - 28.9 °F 67% 30.22 in 10.0 mi Calm Calm - N/A   Clear
8:54 PM 36.0 °F - 28.9 °F 76% 30.21 in 10.0 mi Calm Calm - N/A   Partly Cloudy
9:54 PM 36.0 °F - 28.9 °F 76% 30.22 in 10.0 mi Calm Calm - N/A   Mostly Cloudy
10:54 PM 37.0 °F - 30.9 °F 79% 30.22 in 10.0 mi Calm Calm - N/A   Mostly Cloudy
11:54 PM 39.9 °F - 32.0 °F 73% 30.22 in 10.0 mi Calm Calm - N/A   Overcast